Terminal Aerodrome Forecast
Issued by NWS Columbia, SC

Home | Current Version | Previous Version | Text Only | Print | Product List | Glossary On
Versions: 1 2 3 4 5 6 7 8 9 10 11 12 13 14 15 16 17 18 19 20 21 22 23 24 25 26 27
596
FTUS42 KCAE 230244 AAA
TAFCAE
TAF AMD
KCAE 230244Z 2303/2324 10004KT P6SM VCSH SCT025 BKN035 OVC045
      TEMPO 2303/2306 3SM -RA BR SCT007 OVC025
     FM230600 09004KT P6SM VCSH SCT007 OVC015
     FM230900 09004KT P6SM VCSH BKN007 OVC015
     FM231200 13008KT 5SM -SHRA BR SCT007 OVC015
     FM231500 15010G17KT 5SM -SHRA BR SCT007 OVC015=

USA.gov is the U.S. government's official web portal to all federal, state and local government web resources and services.